Stündliche Wetter Wargowo

Heute, 24 Oktober, Samstag

Zeit Temperatur Niederschläge Wind Luftdruck Luftfeuchtigkeit
00:00 +10°C° 0.6 mm 2 m/S 746 mmHg 94%
01:00 +10°C° 0.6 mm 2 m/S 746 mmHg 95%
02:00 +10°C° 0 mm 2 m/S 746 mmHg 96%
03:00 +10°C° 0 mm 2 m/S 746 mmHg 96%
04:00 +9°C° 0 mm 2 m/S 746 mmHg 97%
05:00 +9°C° 0 mm 3 m/S 746 mmHg 97%
06:00 +9°C° 0 mm 3 m/S 746 mmHg 97%
07:00 +9°C° 0 mm 3 m/S 746 mmHg 97%
08:00 +10°C° 0 mm 4 m/S 746 mmHg 91%
09:00 +12°C° 0 mm 5 m/S 747 mmHg 85%
10:00 +13°C° 0 mm 6 m/S 747 mmHg 80%
11:00 +13°C° 0 mm 6 m/S 747 mmHg 78%
12:00 +13°C° 0 mm 6 m/S 747 mmHg 77%
13:00 +14°C° 0 mm 6 m/S 747 mmHg 75%
14:00 +13°C° 0 mm 6 m/S 747 mmHg 77%
15:00 +13°C° 0 mm 5 m/S 747 mmHg 78%
16:00 +12°C° 0 mm 5 m/S 747 mmHg 79%
17:00 +12°C° 0.1 mm 4 m/S 748 mmHg 82%
18:00 +12°C° 0.1 mm 4 m/S 748 mmHg 84%
19:00 +11°C° 0.1 mm 4 m/S 748 mmHg 86%
20:00 +11°C° 0 mm 3 m/S 748 mmHg 87%
21:00 +11°C° 0 mm 3 m/S 748 mmHg 87%
22:00 +12°C° 0 mm 2 m/S 748 mmHg 88%
23:00 +11°C° 0 mm 3 m/S 748 mmHg 89%

Morgen, 25 Oktober, Sonntag

Zeit Temperatur Niederschläge Wind Luftdruck Luftfeuchtigkeit
00:00 +10°C° 0 mm 3 m/S 749 mmHg 90%
01:00 +10°C° 0 mm 3 m/S 749 mmHg 92%
02:00 +10°C° 0 mm 3 m/S 748 mmHg 91%
03:00 +10°C° 0 mm 3 m/S 748 mmHg 91%
04:00 +10°C° 0 mm 3 m/S 748 mmHg 91%
05:00 +10°C° 0 mm 4 m/S 748 mmHg 91%
06:00 +10°C° 0 mm 4 m/S 748 mmHg 92%
07:00 +8°C° 0 mm 4 m/S 748 mmHg 92%
08:00 +9°C° 0 mm 5 m/S 748 mmHg 86%
09:00 +12°C° 0 mm 5 m/S 748 mmHg 81%
10:00 +13°C° 0 mm 5 m/S 748 mmHg 75%
11:00 +14°C° 0 mm 5 m/S 748 mmHg 72%
12:00 +14°C° 0 mm 5 m/S 748 mmHg 69%
13:00 +15°C° 0 mm 6 m/S 748 mmHg 66%
14:00 +15°C° 0 mm 5 m/S 747 mmHg 68%
15:00 +14°C° 0 mm 5 m/S 747 mmHg 71%
16:00 +14°C° 0 mm 4 m/S 746 mmHg 74%
17:00 +13°C° 0 mm 5 m/S 746 mmHg 76%
18:00 +13°C° 0 mm 5 m/S 747 mmHg 79%
19:00 +12°C° 0 mm 5 m/S 747 mmHg 81%
20:00 +12°C° 0 mm 5 m/S 746 mmHg 82%
21:00 +12°C° 0 mm 5 m/S 746 mmHg 84%
22:00 +12°C° 0 mm 5 m/S 746 mmHg 85%
23:00 +12°C° 0 mm 5 m/S 746 mmHg 85%

übermorgen, 26 Oktober, Montag

Zeit Temperatur Niederschläge Wind Luftdruck Luftfeuchtigkeit
00:00 +10°C° 0 mm 5 m/S 746 mmHg 85%
01:00 +10°C° 0 mm 5 m/S 745 mmHg 85%
02:00 +10°C° 0 mm 5 m/S 745 mmHg 86%
03:00 +9°C° 0 mm 5 m/S 745 mmHg 88%
04:00 +9°C° 0 mm 5 m/S 745 mmHg 89%
05:00 +10°C° 0 mm 4 m/S 745 mmHg 91%
06:00 +8°C° 0 mm 4 m/S 744 mmHg 92%
07:00 +8°C° 0 mm 4 m/S 744 mmHg 94%
08:00 +10°C° 0 mm 4 m/S 744 mmHg 90%
09:00 +11°C° 0 mm 4 m/S 744 mmHg 86%
10:00 +12°C° 0 mm 3 m/S 744 mmHg 82%
11:00 +12°C° 0 mm 3 m/S 744 mmHg 79%
12:00 +13°C° 0 mm 3 m/S 744 mmHg 77%
13:00 +14°C° 0 mm 3 m/S 744 mmHg 74%
14:00 +14°C° 0 mm 3 m/S 743 mmHg 77%
15:00 +13°C° 0 mm 3 m/S 743 mmHg 79%
16:00 +13°C° 0 mm 3 m/S 743 mmHg 82%
17:00 +12°C° 0 mm 3 m/S 743 mmHg 83%
18:00 +13°C° 0 mm 2 m/S 743 mmHg 84%
19:00 +13°C° 0 mm 2 m/S 744 mmHg 86%
20:00 +13°C° 0.2 mm 2 m/S 744 mmHg 87%
21:00 +12°C° 0.2 mm 3 m/S 744 mmHg 88%
22:00 +12°C° 0.2 mm 3 m/S 744 mmHg 89%
23:00 +12°C° 0.1 mm 2 m/S 744 mmHg 91%

, 27 Oktober, Dienstag

Zeit Temperatur Niederschläge Wind Luftdruck Luftfeuchtigkeit
00:00 +12°C° 0.1 mm 2 m/S 744 mmHg 92%
01:00 +12°C° 0.1 mm 2 m/S 744 mmHg 93%
02:00 +12°C° 0 mm 2 m/S 744 mmHg 93%
03:00 +12°C° 0 mm 2 m/S 745 mmHg 93%
04:00 +10°C° 0 mm 2 m/S 745 mmHg 93%
05:00 +11°C° 0 mm 1 m/S 745 mmHg 93%
06:00 +11°C° 0 mm 1 m/S 745 mmHg 93%
07:00 +11°C° 0 mm 1 m/S 745 mmHg 93%
08:00 +11°C° 0 mm 1 m/S 746 mmHg 90%
09:00 +12°C° 0 mm 1 m/S 746 mmHg 86%
10:00 +11°C° 0 mm 0 m/S 746 mmHg 83%
11:00 +12°C° 0 mm 1 m/S 746 mmHg 83%
12:00 +13°C° 0 mm 1 m/S 746 mmHg 83%
13:00 +13°C° 0 mm 1 m/S 746 mmHg 82%
14:00 +12°C° 0.8 mm 1 m/S 746 mmHg 86%
15:00 +12°C° 0.8 mm 1 m/S 746 mmHg 89%
16:00 +11°C° 0.8 mm 1 m/S 746 mmHg 92%
17:00 +10°C° 1 mm 2 m/S 746 mmHg 92%
18:00 +10°C° 1 mm 2 m/S 746 mmHg 91%
19:00 +10°C° 1 mm 2 m/S 746 mmHg 90%
20:00 +9°C° 0.2 mm 3 m/S 746 mmHg 89%
21:00 +9°C° 0.2 mm 3 m/S 746 mmHg 89%
22:00 +9°C° 0.2 mm 3 m/S 746 mmHg 88%
23:00 +9°C° 0 mm 3 m/S 747 mmHg 89%

27 Oktober, Dienstag

Zeit Temperatur Niederschläge Wind Luftdruck Luftfeuchtigkeit
00:00 +12°C° 0.1 mm 2 m/S 744 mmHg 92%
01:00 +12°C° 0.1 mm 2 m/S 744 mmHg 93%
02:00 +12°C° 0 mm 2 m/S 744 mmHg 93%
03:00 +12°C° 0 mm 2 m/S 745 mmHg 93%
04:00 +10°C° 0 mm 2 m/S 745 mmHg 93%
05:00 +11°C° 0 mm 1 m/S 745 mmHg 93%
06:00 +11°C° 0 mm 1 m/S 745 mmHg 93%
07:00 +11°C° 0 mm 1 m/S 745 mmHg 93%
08:00 +11°C° 0 mm 1 m/S 746 mmHg 90%
09:00 +12°C° 0 mm 1 m/S 746 mmHg 86%
10:00 +11°C° 0 mm 0 m/S 746 mmHg 83%
11:00 +12°C° 0 mm 1 m/S 746 mmHg 83%
12:00 +13°C° 0 mm 1 m/S 746 mmHg 83%
13:00 +13°C° 0 mm 1 m/S 746 mmHg 82%
14:00 +12°C° 0.8 mm 1 m/S 746 mmHg 86%
15:00 +12°C° 0.8 mm 1 m/S 746 mmHg 89%
16:00 +11°C° 0.8 mm 1 m/S 746 mmHg 92%
17:00 +10°C° 1 mm 2 m/S 746 mmHg 92%
18:00 +10°C° 1 mm 2 m/S 746 mmHg 91%
19:00 +10°C° 1 mm 2 m/S 746 mmHg 90%
20:00 +9°C° 0.2 mm 3 m/S 746 mmHg 89%
21:00 +9°C° 0.2 mm 3 m/S 746 mmHg 89%
22:00 +9°C° 0.2 mm 3 m/S 746 mmHg 88%
23:00 +9°C° 0 mm 3 m/S 747 mmHg 89%

28 Oktober, Mittwoch

Zeit Temperatur Niederschläge Wind Luftdruck Luftfeuchtigkeit
00:00 +9°C° 0 mm 3 m/S 747 mmHg 89%
01:00 +8°C° 0 mm 3 m/S 747 mmHg 90%
02:00 +7°C° 0 mm 4 m/S 747 mmHg 90%
03:00 +7°C° 0 mm 4 m/S 747 mmHg 91%
04:00 +6°C° 0 mm 4 m/S 747 mmHg 91%
05:00 +6°C° 0 mm 4 m/S 747 mmHg 90%
06:00 +6°C° 0 mm 4 m/S 747 mmHg 89%
07:00 +6°C° 0 mm 4 m/S 748 mmHg 89%
08:00 +7°C° 0 mm 5 m/S 748 mmHg 83%
09:00 +8°C° 0 mm 6 m/S 747 mmHg 77%
10:00 +9°C° 0 mm 6 m/S 747 mmHg 71%
11:00 +10°C° 0 mm 6 m/S 747 mmHg 67%
12:00 +11°C° 0 mm 6 m/S 747 mmHg 64%
13:00 +11°C° 0 mm 6 m/S 747 mmHg 60%
14:00 +11°C° 0 mm 6 m/S 747 mmHg 63%
15:00 +10°C° 0 mm 5 m/S 747 mmHg 66%
16:00 +10°C° 0 mm 5 m/S 747 mmHg 70%
17:00 +9°C° 0 mm 5 m/S 747 mmHg 71%
18:00 +9°C° 0 mm 5 m/S 747 mmHg 73%
19:00 +9°C° 0 mm 5 m/S 747 mmHg 74%
20:00 +9°C° 0 mm 5 m/S 747 mmHg 75%
21:00 +9°C° 0 mm 5 m/S 747 mmHg 75%
22:00 +8°C° 0 mm 5 m/S 747 mmHg 76%
23:00 +8°C° 0 mm 5 m/S 747 mmHg 78%

29 Oktober, Donnerstag

Zeit Temperatur Niederschläge Wind Luftdruck Luftfeuchtigkeit
00:00 +8°C° 0 mm 4 m/S 747 mmHg 81%
01:00 +7°C° 0 mm 4 m/S 747 mmHg 83%
02:00 +7°C° 0 mm 5 m/S 746 mmHg 83%
03:00 +7°C° 0 mm 5 m/S 746 mmHg 83%
04:00 +7°C° 0 mm 5 m/S 746 mmHg 83%
05:00 +7°C° 0 mm 5 m/S 746 mmHg 84%
06:00 +7°C° 0 mm 5 m/S 746 mmHg 84%
07:00 +7°C° 0 mm 5 m/S 746 mmHg 85%
08:00 +7°C° 0.1 mm 5 m/S 746 mmHg 85%
09:00 +8°C° 0.1 mm 5 m/S 746 mmHg 85%
10:00 +8°C° 0.1 mm 5 m/S 747 mmHg 85%
11:00 +8°C° 0.4 mm 5 m/S 747 mmHg 83%
12:00 +9°C° 0.4 mm 5 m/S 747 mmHg 80%
13:00 +9°C° 0.4 mm 6 m/S 747 mmHg 78%
14:00 +9°C° 0.1 mm 5 m/S 747 mmHg 77%
15:00 +9°C° 0.1 mm 5 m/S 748 mmHg 76%
16:00 +10°C° 0.1 mm 4 m/S 748 mmHg 75%
17:00 +8°C° 0 mm 4 m/S 748 mmHg 77%
18:00 +8°C° 0 mm 4 m/S 749 mmHg 79%
19:00 +7°C° 0 mm 4 m/S 749 mmHg 81%
20:00 +7°C° 0 mm 4 m/S 749 mmHg 81%
21:00 +7°C° 0 mm 5 m/S 749 mmHg 82%
22:00 +7°C° 0 mm 5 m/S 750 mmHg 82%
23:00 +7°C° 0 mm 5 m/S 749 mmHg 82%
Mehr zeigen

Wir brauchen deine Erlaubnis

Meteoprog und unser Service Anbieter werden persönliche Daten aufbewahren, so wie Cookies, Geräte Bezeichnung oder ähnliche Technologien von deinem Gerät und Prozess, so wie Persönliche Daten Inhalte und Werbungen, genauso wie social Media und den Verkehr zu analysieren.

  • Aufbewahrung und/oder Zugang zu deiner Geräte Informationen.

    Cookies, Geräte Bezeichnung oder andere Informationen, können aufbewahrt oder Zugang zu deinem Gerät erhalten, für den Grund, der oben angegeben wird.

  • Personalisierte Werbung und Inhalte, Messungen, Einblick in das Publikum und Produkt Entwicklung.

    Werbungen und Inhalte können personalisiert werden, basierend auf ein Profil. Mehr Daten können besser personalisierte Werbungen und Inhalte hinzufügen. Werbung und Inhalte können gezeigt und gemessen werden. Einblicke über das Publikum, welche die Werbung gesehen haben und den Inhalt, können abgeleitet werden. So wie Daten können genutzt werden, um es zu verbessern oder die Benutzer Erfahrung zu verbessern das System und die Software.

Wenn du “Ich stimme zu” klickst, erlaubst du uns, die Cookies zu benutzen die Geräte Bezeichnung, den Web oder ähnliche Technologien zu benutzen. Deine Settings, können in deinem Gerät bei deinem Browser geändert werden.

Für den bestimmten Zweck, berechtigten Interessen beruhen darauf, mehr als auf den Inhalt. Du kannst mehr darüber in unseren Privaten und Cookie Politik lesen.